Regional Weather Roundup
Issued by NWS Newport/Morehead, NC

Current Version | Previous Version | Text Only | Print | Product List | Glossary On
Versions: 1 2 3 4 5 6 7 8 9 10 11 12 13 14 15 16 17 18 19 20 21 22 23 24 25 26 27 28 29 30 31 32 33 34 35 36 37 38 39 40 41 42 43 44 45 46 47 48 49 50
000 ASUS42 KMHX 080125 RWRMHX WEATHER ROUNDUP FOR EASTERN NORTH CAROLINA NATIONAL WEATHER SERVICE NEWPORT/MOREHEAD CITY NC 900 PM EDT TUE JUL 07 2015 NOTE: "FAIR" INDICATES FEW OR NO CLOUDS BELOW 12,000 FEET WITH NO SIGNIFICANT WEATHER AND/OR OBSTRUCTIONS TO VISIBILITY NCZ015>017-031-032-045>047-102-103-080200- NORTH COAST CITY SKY/WX TMP DP RH WIND PRES REMARKS EDENTON N/A 82 74 75 S12 30.08R ELIZABETH CITY CLEAR 83 74 74 S10 30.07R KITTY HAWK CLEAR 82 74 77 SW9 30.08R MANTEO CLEAR 81 74 78 SW13 30.10R $$ NCZ045>047-081-094-103-104-080200- CENTRAL COAST CITY SKY/WX TMP DP RH WIND PRES REMARKS FRISCO CLEAR 78 75 90 SW12 30.11S SWANQUARTER N/A 82 N/A N/A SW16G22 30.06S $$ NCZ095-097-098-100-101-080200- SOUTHERN COAST CITY SKY/WX TMP DP RH WIND PRES REMARKS BEAUFORT CLEAR 80 75 84 SW14 30.12R CEDAR ISLAND N/A 79 N/A N/A S10 30.15S JACKSONVILLE PTCLDY 79 74 84 S6 30.11R PINEY ISLAND CLEAR N/A N/A N/A S8 30.11R WILMINGTON PTCLDY 81 73 76 SW9 30.12R $$ NCZ011>013-027>030-043-044-078>080-089-090>093-098-080200- COASTAL PLAIN CITY SKY/WX TMP DP RH WIND PRES REMARKS AHOSKIE CLEAR 79 76 90 CALM 30.07R CLINTON CLEAR 81 73 77 S3 30.11R ELIZABETHTOWN CLEAR 81 73 77 S5 30.11R GOLDSBORO CLEAR 83 72 68 S6 30.07R GREENVILLE PTCLDY 82 73 74 S9G20 30.10R HAVELOCK CLEAR 79 72 79 SW8 30.12R KENANSVILLE PTCLDY 79 71 76 CALM 30.12R KINSTON PTCLDY 82 70 65 S7 30.10R NEW BERN PTCLDY 80 72 76 S6 30.12R RICHLANDS MOCLDY 79 70 73 S5 30.12R ROCKY MOUNT CLEAR 80 73 79 CALM 30.07R WASHINGTON CLEAR 81 73 77 S8 30.10R WHITEVILLE PTCLDY 81 74 79 S6 30.11R $$ AMZ130-135-150-152-154-156-158-170-250-252-270-ANZ085-086-088-633-658-670-080200- MARINE OBSERVATIONS STATION/POSITION TIME TEMP WIND PRES WAVE SWELL AIR SEA DIR/SP/G HT/PER HT/PER (UTC) (F) (DEG/KT/KT) (MB) (FT/S) (FT/S) CHESAPEAKE LIGHT 0100 81 190/ 17/ 17 1018.0 64 E VA BEACH 0050 79 77 200/ 14/ 17 1017.8 4/ 9 2/ 9 DUCK 0100 83 73 200/ 14/ 17 N/A 2 E DUCK 0111 77 N/A 2/ 9 2/11 OREGON INLET 0100 82 85 210/ 18/ 22 1019.0 13E OREGON INLT 0100 78 N/A 3/ 9 2/13 HATTERAS CG 0100 80 82 210/ 10/ 14 1019.5 DIAMOND BUOY 0050 82 83 220/ 17/ 19 1019.6 3/ 8 2/ 8 CAPE LOOKOUT 0100 80 210/ 10/ 13 1019.7 BEAUFORT LAB 0100 80 84 210/ 10/ 13 1019.2 30 SE NEW RVR IN NOT AVBL 27 SE WRIGHTSVLE 0100 81 220/ 12/ 14 N/A 5 SE WRIGHTSVLE 0008 80 80 220/ 12/ 17 1019.8 225 S CAPE HAT 0050 82 81 200/ 10/ 12 1022.5 4/ 8 3/ 8 41 SE CHARLESTON 0050 82 83 200/ 12/ 14 1020.0 3/ 8 2/ 8 $$

USA.gov is the U.S. government's official web portal to all federal, state and local government web resources and services.